{"data":{"norad_id":40062,"epoch":"2026-09-20T03:36:13.658976Z","epoch_age_seconds":67552,"freshness":"FRESH","line1":"1 40062U 14036B   26263.15015809 -.00000042  00000+0 -37086-3 0  9998","line2":"2 40062  82.5059 248.6609 0022205 311.1297  48.7866 12.42953059554253","mean_motion":12.42953059,"eccentricity":0.0022205,"inclination_deg":82.5059,"raan_deg":248.6609,"arg_perigee_deg":311.1297,"mean_anomaly_deg":48.7866,"bstar":-0.00037086,"rev_number":55425,"period_min":115.85312812686,"perigee_km":1476.6292697827,"apogee_km":1511.5899169037,"semimajor_km":7872.2465933432,"source":"CELESTRAK","updated_at":"2026-09-20T09:00:14.014671Z"}}